• In Latvia
  • List of Countries
  • For 7 days
  • Water Temperature
  • Satellite Maps
  • Weather Map
  • Weather Widgets
  • user-avatar
    Login

    Hourly Weather Canberra

    Today, 21 July, Friday

    Time Temperature Precipitation Wind Pressure Humidity
    00:00 +1°C° 0 mm 1 mps 709 mmHg 88%
    01:00 -1°C° 0 mm 2 mps 710 mmHg 86%
    02:00 -1°C° 0 mm 2 mps 710 mmHg 86%
    03:00 -1°C° 0 mm 2 mps 710 mmHg 86%
    04:00 -1°C° 0 mm 2 mps 710 mmHg 86%
    05:00 -1°C° 0 mm 2 mps 711 mmHg 87%
    06:00 -1°C° 0 mm 2 mps 711 mmHg 89%
    07:00 +1°C° 0 mm 1 mps 711 mmHg 90%
    08:00 +2°C° 0 mm 2 mps 712 mmHg 80%
    09:00 +5°C° 0 mm 2 mps 712 mmHg 69%
    10:00 +8°C° 0 mm 2 mps 713 mmHg 59%
    11:00 +9°C° 0 mm 2 mps 713 mmHg 53%
    12:00 +12°C° 0 mm 2 mps 713 mmHg 46%
    13:00 +13°C° 0 mm 2 mps 713 mmHg 40%
    14:00 +13°C° 0 mm 1 mps 713 mmHg 41%
    15:00 +12°C° 0 mm 1 mps 712 mmHg 43%
    16:00 +11°C° 0 mm 1 mps 712 mmHg 49%
    17:00 +8°C° 0 mm 1 mps 712 mmHg 57%
    18:00 +6°C° 0 mm 1 mps 712 mmHg 66%
    19:00 +4°C° 0 mm 1 mps 713 mmHg 74%
    20:00 +3°C° 0 mm 1 mps 713 mmHg 76%
    21:00 +3°C° 0 mm 1 mps 713 mmHg 77%
    22:00 +2°C° 0 mm 1 mps 713 mmHg 78%
    23:00 +2°C° 0 mm 1 mps 713 mmHg 79%

    Tomorrow, 22 July, Saturday

    Time Temperature Precipitation Wind Pressure Humidity
    00:00 +1°C° 0 mm 1 mps 713 mmHg 79%
    01:00 +1°C° 0 mm 1 mps 713 mmHg 80%
    02:00 +1°C° 0 mm 1 mps 713 mmHg 80%
    03:00 0°C° 0 mm 1 mps 713 mmHg 79%
    04:00 0°C° 0 mm 1 mps 712 mmHg 79%
    05:00 0°C° 0 mm 1 mps 712 mmHg 78%
    06:00 0°C° 0 mm 1 mps 712 mmHg 76%
    07:00 0°C° 0 mm 1 mps 712 mmHg 75%
    08:00 +2°C° 0 mm 2 mps 713 mmHg 63%
    09:00 +5°C° 0 mm 2 mps 713 mmHg 52%
    10:00 +8°C° 0 mm 3 mps 713 mmHg 40%
    11:00 +9°C° 0 mm 3 mps 712 mmHg 38%
    12:00 +11°C° 0 mm 4 mps 712 mmHg 36%
    13:00 +12°C° 0 mm 4 mps 711 mmHg 34%
    14:00 +11°C° 0 mm 4 mps 711 mmHg 37%
    15:00 +11°C° 0 mm 4 mps 710 mmHg 41%
    16:00 +10°C° 0 mm 4 mps 710 mmHg 45%
    17:00 +8°C° 0 mm 3 mps 710 mmHg 53%
    18:00 +5°C° 0 mm 3 mps 710 mmHg 62%
    19:00 +3°C° 0 mm 3 mps 710 mmHg 71%
    20:00 +3°C° 0 mm 3 mps 710 mmHg 71%
    21:00 +4°C° 0 mm 2 mps 710 mmHg 72%
    22:00 +3°C° 0 mm 2 mps 710 mmHg 73%
    23:00 +3°C° 0 mm 2 mps 710 mmHg 72%

    Day after tomorrow, 23 July, Sunday

    Time Temperature Precipitation Wind Pressure Humidity
    00:00 +3°C° 0 mm 2 mps 710 mmHg 70%
    01:00 +3°C° 0 mm 2 mps 710 mmHg 69%
    02:00 +3°C° 0 mm 2 mps 709 mmHg 68%
    03:00 +2°C° 0 mm 3 mps 709 mmHg 67%
    04:00 +2°C° 0 mm 3 mps 708 mmHg 66%
    05:00 +2°C° 0 mm 3 mps 708 mmHg 65%
    06:00 +2°C° 0 mm 3 mps 708 mmHg 64%
    07:00 +2°C° 0 mm 3 mps 708 mmHg 62%
    08:00 +4°C° 0 mm 4 mps 709 mmHg 56%
    09:00 +6°C° 0 mm 5 mps 709 mmHg 51%
    10:00 +9°C° 0 mm 6 mps 709 mmHg 45%
    11:00 +10°C° 0 mm 7 mps 708 mmHg 44%
    12:00 +11°C° 0 mm 7 mps 708 mmHg 44%
    13:00 +13°C° 0 mm 8 mps 707 mmHg 43%
    14:00 +12°C° 0 mm 7 mps 707 mmHg 47%
    15:00 +12°C° 0 mm 7 mps 707 mmHg 50%
    16:00 +11°C° 0 mm 6 mps 707 mmHg 53%
    17:00 +10°C° 0 mm 6 mps 707 mmHg 60%
    18:00 +9°C° 0 mm 5 mps 707 mmHg 67%
    19:00 +7°C° 0 mm 4 mps 707 mmHg 74%
    20:00 +7°C° 0 mm 4 mps 708 mmHg 76%
    21:00 +7°C° 0 mm 4 mps 708 mmHg 79%
    22:00 +7°C° 0 mm 4 mps 708 mmHg 82%
    23:00 +7°C° 0.1 mm 4 mps 708 mmHg 83%

    24 July, Monday

    Time Temperature Precipitation Wind Pressure Humidity
    00:00 +7°C° 0.1 mm 4 mps 708 mmHg 84%
    01:00 +6°C° 0.1 mm 4 mps 708 mmHg 85%
    02:00 +7°C° 0 mm 3 mps 708 mmHg 85%
    03:00 +7°C° 0 mm 3 mps 709 mmHg 86%
    04:00 +5°C° 0 mm 3 mps 709 mmHg 87%
    05:00 +5°C° 0 mm 3 mps 709 mmHg 88%
    06:00 +4°C° 0 mm 3 mps 710 mmHg 88%
    07:00 +5°C° 0 mm 2 mps 710 mmHg 89%
    08:00 +7°C° 0 mm 3 mps 711 mmHg 81%
    09:00 +8°C° 0 mm 3 mps 711 mmHg 72%
    10:00 +10°C° 0 mm 4 mps 712 mmHg 64%
    11:00 +11°C° 0 mm 4 mps 712 mmHg 61%
    12:00 +11°C° 0 mm 4 mps 711 mmHg 58%
    13:00 +12°C° 0 mm 4 mps 711 mmHg 55%
    14:00 +11°C° 0 mm 4 mps 711 mmHg 59%
    15:00 +10°C° 0 mm 4 mps 711 mmHg 63%
    16:00 +8°C° 0 mm 4 mps 711 mmHg 68%
    17:00 +8°C° 0 mm 3 mps 711 mmHg 73%
    18:00 +7°C° 0 mm 3 mps 712 mmHg 79%
    19:00 +5°C° 0 mm 2 mps 712 mmHg 85%
    20:00 +5°C° 0 mm 2 mps 712 mmHg 87%
    21:00 +4°C° 0 mm 2 mps 712 mmHg 89%
    22:00 +4°C° 0 mm 2 mps 713 mmHg 91%
    23:00 +4°C° 0 mm 2 mps 713 mmHg 91%

    25 July, Tuesday

    Time Temperature Precipitation Wind Pressure Humidity
    00:00 +4°C° 0 mm 2 mps 712 mmHg 91%
    01:00 +4°C° 0 mm 2 mps 712 mmHg 91%
    02:00 +4°C° 0 mm 2 mps 712 mmHg 92%
    03:00 +4°C° 0 mm 2 mps 712 mmHg 92%
    04:00 +4°C° 0 mm 2 mps 712 mmHg 93%
    05:00 +4°C° 0 mm 2 mps 712 mmHg 93%
    06:00 +4°C° 0 mm 2 mps 712 mmHg 94%
    07:00 +4°C° 0 mm 2 mps 712 mmHg 94%
    08:00 +6°C° 0 mm 2 mps 712 mmHg 85%
    09:00 +8°C° 0 mm 3 mps 713 mmHg 76%
    10:00 +10°C° 0 mm 4 mps 713 mmHg 67%
    11:00 +11°C° 0 mm 4 mps 712 mmHg 62%
    12:00 +12°C° 0 mm 5 mps 711 mmHg 58%
    13:00 +13°C° 0 mm 5 mps 711 mmHg 53%
    14:00 +13°C° 0 mm 5 mps 710 mmHg 55%
    15:00 +13°C° 0 mm 5 mps 710 mmHg 57%
    16:00 +13°C° 0 mm 5 mps 709 mmHg 59%
    17:00 +12°C° 0 mm 4 mps 709 mmHg 66%
    18:00 +10°C° 0 mm 3 mps 709 mmHg 73%
    19:00 +9°C° 0 mm 2 mps 709 mmHg 80%
    20:00 +9°C° 0 mm 3 mps 709 mmHg 77%
    21:00 +8°C° 0 mm 4 mps 709 mmHg 74%
    22:00 +8°C° 0 mm 4 mps 709 mmHg 71%
    23:00 +9°C° 0 mm 5 mps 708 mmHg 67%

    26 July, Wednesday

    Time Temperature Precipitation Wind Pressure Humidity
    00:00 +9°C° 0 mm 5 mps 708 mmHg 64%
    01:00 +9°C° 0 mm 6 mps 708 mmHg 61%
    02:00 +9°C° 0.2 mm 5 mps 708 mmHg 68%
    03:00 +8°C° 0.2 mm 5 mps 707 mmHg 76%
    04:00 +8°C° 0.2 mm 4 mps 707 mmHg 83%
    05:00 +8°C° 0.1 mm 4 mps 707 mmHg 85%
    06:00 +8°C° 0.1 mm 4 mps 708 mmHg 86%
    07:00 +8°C° 0.1 mm 4 mps 708 mmHg 88%
    08:00 +8°C° 0.1 mm 5 mps 708 mmHg 84%
    09:00 +9°C° 0.1 mm 5 mps 708 mmHg 79%
    10:00 +9°C° 0.1 mm 5 mps 709 mmHg 75%
    11:00 +9°C° 0.1 mm 6 mps 708 mmHg 73%
    12:00 +9°C° 0.1 mm 6 mps 708 mmHg 70%
    13:00 +10°C° 0.1 mm 6 mps 708 mmHg 68%
    14:00 +9°C° 0.1 mm 6 mps 708 mmHg 68%
    15:00 +9°C° 0.1 mm 6 mps 708 mmHg 68%
    16:00 +8°C° 0.1 mm 6 mps 708 mmHg 68%
    17:00 +7°C° 0 mm 5 mps 708 mmHg 73%
    18:00 +6°C° 0 mm 5 mps 708 mmHg 77%
    19:00 +5°C° 0 mm 4 mps 709 mmHg 81%
    20:00 +5°C° 0 mm 4 mps 709 mmHg 82%
    21:00 +5°C° 0 mm 3 mps 709 mmHg 83%
    22:00 +5°C° 0 mm 3 mps 710 mmHg 84%
    23:00 +4°C° 0 mm 3 mps 710 mmHg 86%
    Show more